DAL2031 KDAL-KPHX

Flight info

Callsign DAL2031
Flight time 2h 12m
Altitude 32000
Route KKITY5 CIKAN EWM DRRVR PINNG1
Aircraft B738/M-SDE2E3FGHIRWXY/LB1

Departure

Time 2026-04-30 01:12
Airport Dallas Love Field (KDAL)

Arrival

Time 2026-04-30 03:24
Airport Phoenix Sky Harbor International Airport (KPHX)
Time Latitude Longitude Altitude Speed Heading
2026-04-30 00:24 32.84650 -96.85139 481 ft 0 kts 180°
2026-04-30 00:56 32.84651 -96.85139 486 ft 1 kts 180°
2026-04-30 00:56 32.84676 -96.85140 486 ft 4 kts 173°
2026-04-30 00:56 32.84702 -96.85146 484 ft 4 kts 162°
2026-04-30 00:56 32.84727 -96.85158 479 ft 4 kts 144°
2026-04-30 00:57 32.84744 -96.85180 462 ft 4 kts 104°
2026-04-30 00:57 32.84746 -96.85189 458 ft 2 kts 90°
2026-04-30 01:07 32.84746 -96.85179 483 ft 5 kts 90°
2026-04-30 01:07 32.84745 -96.85102 490 ft 13 kts 91°
2026-04-30 01:07 32.84744 -96.84980 489 ft 17 kts 90°
2026-04-30 01:08 32.84743 -96.84828 489 ft 18 kts 96°
2026-04-30 01:08 32.84668 -96.84704 485 ft 21 kts 136°
2026-04-30 01:08 32.84562 -96.84584 492 ft 18 kts 145°
2026-04-30 01:08 32.84447 -96.84506 491 ft 21 kts 134°
2026-04-30 01:09 32.84337 -96.84377 495 ft 24 kts 136°
2026-04-30 01:09 32.84217 -96.84238 496 ft 25 kts 135°
2026-04-30 01:09 32.84109 -96.84113 495 ft 13 kts 137°
2026-04-30 01:09 32.84112 -96.84045 492 ft 9 kts 47°
2026-04-30 01:10 32.84150 -96.83999 488 ft 1 kts 45°
2026-04-30 01:10 32.84154 -96.83995 491 ft 0 kts 45°
2026-04-30 01:11 32.84175 -96.83968 494 ft 11 kts 46°
2026-04-30 01:11 32.84243 -96.83965 494 ft 15 kts 317°
2026-04-30 01:11 32.84390 -96.84134 494 ft 57 kts 315°
2026-04-30 01:11 32.84846 -96.84659 485 ft 123 kts 316°
2026-04-30 01:12 32.85595 -96.85519 564 ft 169 kts 316°
2026-04-30 01:12 32.86419 -96.86523 1223 ft 173 kts 318°
2026-04-30 01:12 32.87311 -96.87579 1801 ft 184 kts 321°
2026-04-30 01:12 32.88271 -96.88696 2163 ft 205 kts 321°
2026-04-30 01:13 32.89333 -96.89934 2425 ft 223 kts 320°
2026-04-30 01:13 32.90484 -96.91237 2710 ft 236 kts 319°
2026-04-30 01:13 32.91409 -96.92954 2899 ft 265 kts 285°
2026-04-30 01:13 32.91299 -96.95166 3503 ft 274 kts 252°
2026-04-30 01:14 32.90660 -96.97290 4318 ft 271 kts 250°
2026-04-30 01:14 32.90023 -96.99352 5305 ft 261 kts 250°
2026-04-30 01:14 32.89403 -97.01366 6140 ft 258 kts 250°
2026-04-30 01:14 32.88795 -97.03359 6893 ft 256 kts 250°
2026-04-30 01:15 32.88189 -97.05357 7545 ft 258 kts 251°
2026-04-30 01:15 32.87583 -97.07368 8202 ft 259 kts 251°
2026-04-30 01:15 32.86974 -97.09401 8884 ft 261 kts 251°
2026-04-30 01:15 32.86365 -97.11439 9562 ft 262 kts 251°
2026-04-30 01:16 32.85763 -97.13456 10203 ft 263 kts 251°
2026-04-30 01:16 32.85134 -97.15573 10426 ft 281 kts 252°
2026-04-30 01:16 32.84460 -97.17841 10572 ft 300 kts 252°
2026-04-30 01:16 32.83743 -97.20253 10711 ft 318 kts 252°
2026-04-30 01:17 32.82985 -97.22805 10835 ft 335 kts 252°
2026-04-30 01:17 32.82190 -97.25476 10952 ft 351 kts 252°
2026-04-30 01:17 32.81359 -97.28264 11104 ft 363 kts 252°
2026-04-30 01:17 32.80797 -97.30147 11321 ft 367 kts 252°
2026-04-30 01:18 32.79940 -97.33013 11799 ft 368 kts 252°
2026-04-30 01:18 32.79083 -97.35880 12310 ft 368 kts 252°
2026-04-30 01:18 32.78222 -97.38757 12789 ft 370 kts 252°
2026-04-30 01:18 32.77357 -97.41646 13273 ft 372 kts 252°
2026-04-30 01:19 32.76489 -97.44544 13766 ft 373 kts 253°
2026-04-30 01:19 32.75617 -97.47456 14193 ft 375 kts 253°
2026-04-30 01:19 32.74739 -97.50381 14547 ft 377 kts 253°
2026-04-30 01:19 32.73855 -97.53326 14976 ft 379 kts 253°
2026-04-30 01:20 32.72967 -97.56280 15414 ft 380 kts 253°
2026-04-30 01:20 32.72073 -97.59250 15838 ft 382 kts 253°
2026-04-30 01:20 32.71175 -97.62232 16243 ft 385 kts 253°
2026-04-30 01:20 32.70273 -97.65228 16675 ft 386 kts 253°
2026-04-30 01:21 32.69364 -97.68237 17099 ft 388 kts 254°
2026-04-30 01:21 32.68455 -97.71255 17516 ft 389 kts 255°
2026-04-30 01:21 32.67738 -97.74349 17917 ft 388 kts 262°
2026-04-30 01:21 32.67429 -97.77530 18313 ft 388 kts 268°
2026-04-30 01:22 32.67212 -97.80726 18652 ft 390 kts 267°
2026-04-30 01:22 32.66979 -97.83942 19009 ft 391 kts 267°
2026-04-30 01:22 32.66734 -97.87168 19336 ft 393 kts 266°
2026-04-30 01:22 32.66487 -97.90365 19651 ft 395 kts 266°
2026-04-30 01:23 32.66233 -97.93620 19971 ft 397 kts 266°
2026-04-30 01:23 32.65975 -97.96890 20277 ft 398 kts 266°
2026-04-30 01:23 32.65716 -98.00170 20605 ft 400 kts 266°
2026-04-30 01:23 32.65456 -98.03460 20912 ft 401 kts 266°
2026-04-30 01:24 32.65193 -98.06761 21212 ft 403 kts 266°
2026-04-30 01:24 32.64929 -98.10077 21503 ft 404 kts 266°
2026-04-30 01:24 32.64663 -98.13405 21768 ft 406 kts 266°
2026-04-30 01:24 32.64395 -98.16749 22037 ft 408 kts 266°
2026-04-30 01:25 32.64126 -98.20104 22306 ft 409 kts 266°
2026-04-30 01:25 32.63854 -98.23467 22557 ft 410 kts 266°
2026-04-30 01:25 32.63581 -98.26842 22822 ft 412 kts 266°
2026-04-30 01:25 32.63310 -98.30188 23063 ft 413 kts 266°
2026-04-30 01:26 32.63033 -98.33585 23291 ft 414 kts 266°
2026-04-30 01:26 32.62755 -98.36994 23530 ft 415 kts 266°
2026-04-30 01:26 32.62474 -98.40412 23730 ft 416 kts 266°
2026-04-30 01:26 32.62194 -98.43832 23945 ft 416 kts 266°
2026-04-30 01:27 32.61911 -98.47259 24158 ft 417 kts 266°
2026-04-30 01:27 32.61629 -98.50673 24378 ft 417 kts 266°
2026-04-30 01:27 32.61345 -98.54095 24568 ft 417 kts 266°
2026-04-30 01:27 32.61059 -98.57533 24749 ft 418 kts 266°
2026-04-30 01:28 32.60772 -98.60965 24941 ft 419 kts 266°
2026-04-30 01:28 32.60484 -98.64406 25144 ft 419 kts 265°
2026-04-30 01:28 32.60198 -98.67806 25342 ft 419 kts 265°
2026-04-30 01:28 32.59908 -98.71248 25519 ft 420 kts 265°
2026-04-30 01:29 32.59617 -98.74694 25689 ft 420 kts 265°
2026-04-30 01:29 32.59324 -98.78137 25851 ft 420 kts 265°
2026-04-30 01:29 32.59031 -98.81581 26003 ft 420 kts 265°
2026-04-30 01:29 32.58736 -98.85028 26216 ft 419 kts 265°
2026-04-30 01:30 32.58442 -98.88454 26466 ft 416 kts 265°
2026-04-30 01:30 32.58149 -98.91861 26732 ft 414 kts 265°
2026-04-30 01:30 32.57856 -98.95255 26962 ft 413 kts 265°
2026-04-30 01:30 32.57564 -98.98638 27177 ft 412 kts 265°
2026-04-30 01:31 32.57271 -99.02012 27417 ft 410 kts 265°
2026-04-30 01:31 32.56978 -99.05377 27657 ft 409 kts 265°
2026-04-30 01:31 32.56685 -99.08733 27907 ft 407 kts 265°
2026-04-30 01:31 32.56396 -99.12024 28161 ft 406 kts 265°
2026-04-30 01:32 32.56104 -99.15352 28409 ft 405 kts 265°
2026-04-30 01:32 32.55812 -99.18669 28660 ft 404 kts 265°
2026-04-30 01:32 32.55520 -99.21973 28918 ft 402 kts 265°
2026-04-30 01:32 32.55229 -99.25261 29179 ft 401 kts 265°
2026-04-30 01:33 32.54937 -99.28550 29470 ft 399 kts 265°
2026-04-30 01:33 32.54645 -99.31815 29755 ft 398 kts 265°
2026-04-30 01:33 32.54370 -99.35078 30014 ft 396 kts 266°
2026-04-30 01:33 32.54159 -99.38322 30267 ft 395 kts 267°
2026-04-30 01:34 32.53975 -99.41578 30465 ft 395 kts 267°
2026-04-30 01:34 32.53798 -99.44818 30683 ft 394 kts 267°
2026-04-30 01:34 32.53618 -99.48051 30902 ft 393 kts 267°
2026-04-30 01:34 32.53433 -99.51283 31134 ft 392 kts 267°
2026-04-30 01:35 32.53244 -99.54501 31314 ft 392 kts 267°
2026-04-30 01:35 32.53054 -99.57682 31478 ft 392 kts 267°
2026-04-30 01:35 32.52859 -99.60903 31674 ft 392 kts 267°
2026-04-30 01:35 32.52661 -99.64132 31915 ft 390 kts 267°
2026-04-30 01:36 32.52464 -99.67338 32029 ft 391 kts 267°
2026-04-30 01:36 32.52265 -99.70555 32035 ft 392 kts 267°
2026-04-30 01:36 32.51867 -99.76949 32006 ft 390 kts 267°
2026-04-30 01:37 32.51466 -99.83348 32011 ft 389 kts 267°
2026-04-30 01:37 32.51062 -99.89740 32013 ft 389 kts 267°
2026-04-30 01:38 32.50655 -99.96136 32002 ft 389 kts 267°
2026-04-30 01:38 32.50244 -100.02535 32006 ft 390 kts 267°
2026-04-30 01:39 32.49830 -100.08931 32000 ft 390 kts 267°
2026-04-30 01:39 32.49414 -100.15314 31984 ft 390 kts 267°
2026-04-30 01:40 32.48993 -100.21728 31981 ft 390 kts 267°
2026-04-30 01:40 32.48568 -100.28143 31981 ft 391 kts 267°
2026-04-30 01:41 32.48141 -100.34567 32072 ft 391 kts 267°
2026-04-30 01:41 32.47718 -100.40992 32068 ft 391 kts 267°
2026-04-30 01:42 32.47292 -100.47419 32073 ft 391 kts 267°
2026-04-30 01:42 32.46864 -100.53838 32063 ft 391 kts 267°
2026-04-30 01:43 32.46434 -100.60222 32060 ft 391 kts 267°
2026-04-30 01:43 32.45998 -100.66649 32047 ft 391 kts 267°
2026-04-30 01:44 32.45559 -100.73070 32018 ft 391 kts 267°
2026-04-30 01:44 32.45117 -100.79484 31996 ft 391 kts 267°
2026-04-30 01:45 32.44671 -100.85909 32001 ft 391 kts 267°
2026-04-30 01:45 32.44223 -100.92323 31997 ft 391 kts 267°
2026-04-30 01:46 32.43773 -100.98713 31996 ft 391 kts 267°
2026-04-30 01:46 32.43318 -101.05128 31988 ft 391 kts 267°
2026-04-30 01:47 32.42860 -101.11543 31983 ft 391 kts 266°
2026-04-30 01:47 32.42398 -101.17958 31971 ft 391 kts 266°
2026-04-30 01:48 32.41934 -101.24365 31962 ft 391 kts 266°
2026-04-30 01:48 32.41466 -101.30783 31959 ft 391 kts 266°
2026-04-30 01:49 32.40999 -101.37142 31958 ft 390 kts 266°
2026-04-30 01:49 32.40525 -101.43540 31955 ft 390 kts 266°
2026-04-30 01:50 32.40048 -101.49939 31957 ft 390 kts 266°
2026-04-30 01:50 32.39568 -101.56342 31959 ft 390 kts 266°
2026-04-30 01:51 32.39086 -101.62725 31951 ft 390 kts 266°
2026-04-30 01:51 32.38600 -101.69111 31954 ft 389 kts 266°
2026-04-30 01:52 32.38114 -101.75457 31950 ft 389 kts 266°
2026-04-30 01:52 32.37623 -101.81833 31951 ft 389 kts 266°
2026-04-30 01:53 32.37128 -101.88209 31951 ft 389 kts 266°
2026-04-30 01:53 32.36630 -101.94593 31948 ft 389 kts 266°
2026-04-30 01:54 32.36128 -102.00975 31947 ft 389 kts 266°
2026-04-30 01:54 32.35624 -102.07345 31936 ft 389 kts 266°
2026-04-30 01:55 32.35116 -102.13724 31944 ft 389 kts 265°
2026-04-30 01:55 32.34608 -102.20056 31948 ft 389 kts 265°
2026-04-30 01:56 32.34094 -102.26433 31945 ft 389 kts 265°
2026-04-30 01:56 32.33577 -102.32800 31945 ft 389 kts 265°
2026-04-30 01:57 32.33056 -102.39176 31953 ft 390 kts 265°
2026-04-30 01:57 32.32533 -102.45553 31947 ft 390 kts 265°
2026-04-30 01:58 32.32004 -102.51948 31952 ft 391 kts 265°
2026-04-30 01:58 32.31472 -102.58343 31951 ft 391 kts 265°
2026-04-30 01:59 32.30665 -102.67961 31947 ft 392 kts 265°
2026-04-30 02:00 32.30123 -102.74376 31953 ft 392 kts 265°
2026-04-30 02:00 32.29577 -102.80793 31942 ft 392 kts 265°
2026-04-30 02:01 32.29032 -102.87173 31948 ft 392 kts 265°
2026-04-30 02:01 32.28479 -102.93600 31938 ft 393 kts 265°
2026-04-30 02:02 32.27921 -103.00047 31935 ft 393 kts 265°
2026-04-30 02:02 32.27361 -103.06477 31930 ft 394 kts 265°
2026-04-30 02:03 32.26892 -103.11822 31934 ft 394 kts 265°
2026-04-30 02:03 32.26325 -103.18258 31937 ft 392 kts 266°
2026-04-30 02:04 32.25759 -103.24655 31913 ft 390 kts 266°
2026-04-30 02:04 32.25195 -103.30990 31917 ft 389 kts 266°
2026-04-30 02:05 32.24626 -103.37348 31904 ft 388 kts 266°
2026-04-30 02:05 32.24055 -103.43686 31902 ft 388 kts 266°
2026-04-30 02:06 32.23481 -103.50023 31981 ft 387 kts 265°
2026-04-30 02:06 32.22910 -103.56289 31886 ft 379 kts 264°
2026-04-30 02:07 32.22346 -103.62443 31889 ft 377 kts 264°
2026-04-30 02:07 32.21781 -103.68574 31864 ft 378 kts 264°
2026-04-30 02:08 32.21206 -103.74789 31860 ft 378 kts 264°
2026-04-30 02:08 32.20635 -103.80924 31834 ft 378 kts 264°
2026-04-30 02:09 32.20056 -103.87112 31768 ft 380 kts 264°
2026-04-30 02:09 32.19470 -103.93341 31826 ft 385 kts 264°
2026-04-30 02:10 32.18873 -103.99654 31833 ft 388 kts 264°
2026-04-30 02:10 32.18268 -104.06008 31832 ft 390 kts 264°
2026-04-30 02:11 32.17659 -104.12384 31916 ft 391 kts 264°
2026-04-30 02:11 32.17049 -104.18720 31927 ft 391 kts 264°
2026-04-30 02:12 32.16434 -104.25084 31918 ft 391 kts 264°
2026-04-30 02:12 32.15813 -104.31481 31919 ft 392 kts 264°
2026-04-30 02:13 32.15186 -104.37896 31918 ft 393 kts 264°
2026-04-30 02:13 32.14556 -104.44310 31897 ft 394 kts 264°
2026-04-30 02:14 32.13927 -104.50683 31894 ft 393 kts 264°
2026-04-30 02:14 32.13291 -104.57085 31888 ft 391 kts 264°
2026-04-30 02:15 32.12654 -104.63472 31852 ft 392 kts 264°
2026-04-30 02:15 32.12014 -104.69861 31859 ft 393 kts 264°
2026-04-30 02:16 32.11368 -104.76271 31852 ft 393 kts 264°
2026-04-30 02:16 32.10720 -104.82670 31867 ft 393 kts 264°
2026-04-30 02:17 32.10073 -104.89022 31867 ft 392 kts 264°
2026-04-30 02:17 32.09420 -104.95411 31854 ft 392 kts 264°
2026-04-30 02:18 32.08761 -105.01810 31845 ft 392 kts 264°
2026-04-30 02:18 32.08102 -105.08194 31845 ft 391 kts 264°
2026-04-30 02:19 32.07445 -105.14518 31847 ft 390 kts 264°
2026-04-30 02:19 32.06782 -105.20869 31854 ft 390 kts 264°
2026-04-30 02:20 32.06116 -105.27221 31851 ft 390 kts 264°
2026-04-30 02:20 32.05446 -105.33573 31857 ft 390 kts 263°
2026-04-30 02:21 32.04778 -105.39881 31848 ft 390 kts 263°
2026-04-30 02:21 32.04103 -105.46225 31844 ft 390 kts 263°
2026-04-30 02:22 32.03425 -105.52563 31857 ft 389 kts 263°
2026-04-30 02:22 32.02744 -105.58904 31860 ft 389 kts 263°
2026-04-30 02:23 32.02060 -105.65239 31868 ft 390 kts 263°
2026-04-30 02:23 32.01371 -105.71584 31856 ft 390 kts 263°
2026-04-30 02:24 32.00684 -105.77893 31854 ft 390 kts 263°
2026-04-30 02:24 31.99990 -105.84232 31867 ft 390 kts 263°
2026-04-30 02:25 31.99293 -105.90567 31863 ft 390 kts 263°
2026-04-30 02:25 31.98592 -105.96908 31857 ft 390 kts 263°
2026-04-30 02:26 31.97887 -106.03258 31867 ft 391 kts 262°
2026-04-30 02:26 31.97177 -106.09622 31896 ft 392 kts 262°
2026-04-30 02:27 31.96463 -106.15996 31923 ft 393 kts 262°
2026-04-30 02:27 31.95748 -106.22351 31952 ft 393 kts 262°
2026-04-30 02:28 31.95323 -106.28768 31973 ft 394 kts 270°
2026-04-30 02:28 31.95851 -106.35209 31992 ft 395 kts 273°
2026-04-30 02:29 31.96421 -106.41655 31984 ft 396 kts 273°
2026-04-30 02:29 31.96977 -106.48116 31965 ft 396 kts 274°
2026-04-30 02:30 31.97528 -106.54582 31973 ft 398 kts 273°
2026-04-30 02:30 31.98064 -106.61024 32005 ft 397 kts 273°
2026-04-30 02:31 31.98600 -106.67490 32023 ft 396 kts 273°
2026-04-30 02:31 31.99132 -106.73942 32011 ft 396 kts 273°
2026-04-30 02:32 31.99663 -106.80425 31996 ft 397 kts 273°
2026-04-30 02:32 32.00191 -106.86908 31971 ft 398 kts 273°
2026-04-30 02:33 32.00717 -106.93395 31946 ft 398 kts 272°
2026-04-30 02:33 32.01238 -106.99876 31914 ft 396 kts 272°
2026-04-30 02:34 32.01755 -107.06329 31868 ft 396 kts 272°
2026-04-30 02:34 32.02268 -107.12798 31873 ft 397 kts 272°
2026-04-30 02:35 32.02779 -107.19285 31869 ft 398 kts 272°
2026-04-30 02:35 32.03286 -107.25752 31849 ft 399 kts 272°
2026-04-30 02:36 32.03795 -107.32284 31853 ft 400 kts 272°
2026-04-30 02:36 32.04300 -107.38814 31864 ft 400 kts 272°
2026-04-30 02:37 32.04803 -107.45356 31893 ft 401 kts 272°
2026-04-30 02:37 32.05303 -107.51915 31929 ft 402 kts 272°
2026-04-30 02:38 32.05801 -107.58475 31948 ft 402 kts 272°
2026-04-30 02:38 32.06294 -107.65040 31970 ft 401 kts 272°
2026-04-30 02:39 32.06786 -107.71613 31969 ft 402 kts 272°
2026-04-30 02:39 32.07271 -107.78146 31981 ft 402 kts 272°
2026-04-30 02:40 32.07755 -107.84715 31882 ft 401 kts 272°
2026-04-30 02:40 32.08235 -107.91276 31888 ft 401 kts 272°
2026-04-30 02:41 32.08711 -107.97828 31886 ft 401 kts 272°
2026-04-30 02:41 32.09180 -108.04326 31889 ft 400 kts 272°
2026-04-30 02:42 32.09649 -108.10879 31889 ft 400 kts 272°
2026-04-30 02:42 32.10114 -108.17426 31888 ft 400 kts 272°
2026-04-30 02:43 32.10576 -108.23967 31886 ft 400 kts 272°
2026-04-30 02:43 32.11035 -108.30516 31884 ft 401 kts 272°
2026-04-30 02:44 32.11487 -108.37029 31887 ft 401 kts 272°
2026-04-30 02:44 32.11939 -108.43575 31926 ft 400 kts 272°
2026-04-30 02:45 32.12388 -108.50121 31940 ft 400 kts 272°
2026-04-30 02:45 32.12832 -108.56660 31962 ft 399 kts 271°
2026-04-30 02:46 32.13272 -108.63188 31977 ft 399 kts 271°
2026-04-30 02:46 32.13710 -108.69713 31984 ft 398 kts 271°
2026-04-30 02:47 32.14143 -108.76232 31879 ft 398 kts 271°
2026-04-30 02:47 32.14572 -108.82750 31877 ft 398 kts 271°
2026-04-30 02:48 32.14995 -108.89233 31872 ft 398 kts 271°
2026-04-30 02:48 32.15417 -108.95737 31870 ft 397 kts 271°
2026-04-30 02:49 32.15834 -109.02230 31880 ft 396 kts 271°
2026-04-30 02:49 32.16248 -109.08714 31882 ft 397 kts 271°
2026-04-30 02:50 32.16660 -109.15219 31882 ft 397 kts 271°
2026-04-30 02:50 32.17068 -109.21708 31884 ft 396 kts 271°
2026-04-30 02:51 32.17404 -109.27093 31898 ft 396 kts 271°
2026-04-30 02:51 32.18326 -109.33545 31887 ft 401 kts 279°
2026-04-30 02:52 32.19742 -109.39899 31880 ft 400 kts 279°
2026-04-30 02:52 32.21153 -109.46250 31879 ft 399 kts 279°
2026-04-30 02:53 32.22520 -109.52599 31886 ft 397 kts 279°
2026-04-30 02:53 32.23860 -109.58916 31876 ft 396 kts 278°
2026-04-30 02:54 32.25192 -109.65213 31902 ft 394 kts 278°
2026-04-30 02:54 32.26513 -109.71481 31907 ft 396 kts 278°
2026-04-30 02:55 32.27832 -109.77845 31897 ft 400 kts 278°
2026-04-30 02:55 32.29161 -109.84238 31898 ft 402 kts 278°
2026-04-30 02:56 32.30499 -109.90670 31899 ft 403 kts 278°
2026-04-30 02:56 32.31840 -109.97126 31908 ft 403 kts 278°
2026-04-30 02:57 32.33166 -110.03525 31920 ft 402 kts 278°
2026-04-30 02:57 32.34493 -110.09942 31927 ft 401 kts 278°
2026-04-30 02:58 32.35814 -110.16368 31903 ft 402 kts 278°
2026-04-30 02:58 32.37133 -110.22795 31918 ft 402 kts 278°
2026-04-30 02:59 32.38447 -110.29216 31925 ft 401 kts 278°
2026-04-30 02:59 32.39103 -110.32426 31802 ft 403 kts 278°
2026-04-30 02:59 32.39766 -110.35685 31125 ft 406 kts 278°
2026-04-30 02:59 32.40426 -110.38921 30434 ft 404 kts 278°
2026-04-30 03:00 32.41085 -110.42153 29628 ft 404 kts 278°
2026-04-30 03:00 32.41747 -110.45391 28715 ft 405 kts 278°
2026-04-30 03:00 32.42406 -110.48646 27822 ft 406 kts 278°
2026-04-30 03:00 32.43064 -110.51905 26956 ft 408 kts 278°
2026-04-30 03:01 32.43719 -110.55145 26515 ft 398 kts 278°
2026-04-30 03:01 32.44354 -110.58268 26363 ft 384 kts 278°
2026-04-30 03:01 32.44971 -110.61325 26209 ft 383 kts 278°
2026-04-30 03:01 32.45583 -110.64370 26037 ft 375 kts 278°
2026-04-30 03:02 32.46172 -110.67289 25823 ft 364 kts 278°
2026-04-30 03:02 32.46785 -110.70132 25754 ft 352 kts 283°
2026-04-30 03:02 32.47828 -110.72775 25273 ft 359 kts 295°
2026-04-30 03:02 32.49217 -110.75245 24798 ft 358 kts 297°
2026-04-30 03:03 32.50633 -110.77663 24333 ft 356 kts 297°
2026-04-30 03:03 32.53471 -110.82390 23481 ft 349 kts 297°
2026-04-30 03:03 32.54813 -110.84778 23007 ft 347 kts 297°
2026-04-30 03:04 32.56148 -110.87133 22566 ft 343 kts 297°
2026-04-30 03:04 32.57484 -110.89477 22189 ft 339 kts 297°
2026-04-30 03:04 32.58800 -110.91784 21785 ft 337 kts 297°
2026-04-30 03:04 32.60115 -110.94091 21381 ft 336 kts 297°
2026-04-30 03:05 32.61427 -110.96394 20966 ft 338 kts 298°
2026-04-30 03:05 32.62734 -110.98690 20554 ft 342 kts 298°
2026-04-30 03:05 32.64066 -111.01030 20123 ft 342 kts 298°
2026-04-30 03:05 32.65396 -111.03362 19710 ft 339 kts 298°
2026-04-30 03:06 32.66716 -111.05680 19292 ft 338 kts 298°
2026-04-30 03:06 32.68032 -111.07993 18875 ft 337 kts 298°
2026-04-30 03:06 32.69341 -111.10297 18459 ft 336 kts 298°
2026-04-30 03:06 32.70644 -111.12592 18015 ft 335 kts 298°
2026-04-30 03:07 32.71948 -111.14887 17569 ft 333 kts 298°
2026-04-30 03:07 32.73227 -111.17138 17471 ft 322 kts 298°
2026-04-30 03:07 32.74454 -111.19296 17305 ft 316 kts 298°
2026-04-30 03:07 32.75680 -111.21462 16955 ft 316 kts 298°
2026-04-30 03:08 32.76902 -111.23623 16612 ft 315 kts 298°
2026-04-30 03:08 32.78125 -111.25789 16246 ft 316 kts 298°
2026-04-30 03:08 32.79348 -111.27954 15884 ft 315 kts 298°
2026-04-30 03:08 32.80568 -111.30112 15521 ft 312 kts 298°
2026-04-30 03:09 32.81774 -111.32247 15165 ft 310 kts 298°
2026-04-30 03:09 32.82971 -111.34369 14810 ft 308 kts 298°
2026-04-30 03:09 32.84160 -111.36478 14459 ft 306 kts 298°
2026-04-30 03:09 32.85342 -111.38577 14088 ft 305 kts 300°
2026-04-30 03:10 32.86525 -111.40679 13724 ft 305 kts 300°
2026-04-30 03:10 32.87704 -111.42772 13385 ft 302 kts 300°
2026-04-30 03:10 32.88840 -111.44788 13259 ft 293 kts 300°
2026-04-30 03:10 32.89962 -111.46778 13103 ft 285 kts 300°
2026-04-30 03:11 32.91212 -111.48578 12945 ft 283 kts 315°
2026-04-30 03:11 32.92924 -111.49798 12666 ft 292 kts 331°
2026-04-30 03:11 32.94820 -111.50726 12387 ft 296 kts 333°
2026-04-30 03:11 32.96744 -111.51636 12095 ft 299 kts 333°
2026-04-30 03:12 32.98689 -111.52558 11792 ft 301 kts 333°
2026-04-30 03:12 33.00638 -111.53492 11487 ft 302 kts 333°
2026-04-30 03:12 33.02583 -111.54433 11185 ft 301 kts 333°
2026-04-30 03:12 33.04488 -111.55359 10886 ft 299 kts 333°
2026-04-30 03:13 33.06408 -111.56296 10608 ft 297 kts 333°
2026-04-30 03:13 33.08318 -111.57231 10317 ft 295 kts 334°
2026-04-30 03:13 33.10203 -111.58161 10016 ft 288 kts 334°
2026-04-30 03:13 33.12032 -111.59064 9714 ft 280 kts 334°
2026-04-30 03:14 33.13806 -111.59941 9410 ft 272 kts 334°
2026-04-30 03:14 33.15529 -111.60793 9151 ft 263 kts 334°
2026-04-30 03:14 33.17160 -111.61597 9066 ft 244 kts 334°
2026-04-30 03:14 33.18674 -111.62344 8921 ft 227 kts 334°
2026-04-30 03:15 33.20125 -111.63056 8511 ft 224 kts 333°
2026-04-30 03:15 33.21534 -111.63757 8247 ft 217 kts 333°
2026-04-30 03:15 33.22924 -111.64455 8032 ft 216 kts 332°
2026-04-30 03:15 33.24267 -111.65219 7803 ft 217 kts 330°
2026-04-30 03:16 33.25626 -111.66018 7577 ft 219 kts 330°
2026-04-30 03:16 33.26993 -111.66822 7335 ft 219 kts 330°
2026-04-30 03:16 33.28360 -111.67625 7104 ft 219 kts 330°
2026-04-30 03:16 33.29725 -111.68426 6888 ft 217 kts 331°
2026-04-30 03:17 33.31076 -111.69217 6591 ft 216 kts 331°
2026-04-30 03:17 33.32404 -111.69993 6393 ft 209 kts 330°
2026-04-30 03:17 33.33698 -111.70750 6157 ft 206 kts 331°
2026-04-30 03:17 33.34982 -111.71500 5934 ft 204 kts 331°
2026-04-30 03:18 33.36239 -111.72235 5725 ft 198 kts 331°
2026-04-30 03:18 33.37462 -111.72949 5500 ft 192 kts 330°
2026-04-30 03:18 33.38643 -111.73640 5290 ft 190 kts 331°
2026-04-30 03:18 33.39820 -111.74330 5105 ft 187 kts 329°
2026-04-30 03:19 33.40747 -111.75334 4901 ft 177 kts 299°
2026-04-30 03:19 33.41419 -111.76579 4748 ft 182 kts 301°
2026-04-30 03:19 33.42134 -111.77861 4543 ft 187 kts 301°
2026-04-30 03:19 33.42858 -111.79157 4343 ft 186 kts 301°
2026-04-30 03:20 33.43571 -111.80433 4138 ft 182 kts 301°
2026-04-30 03:20 33.43994 -111.81812 3889 ft 172 kts 272°
2026-04-30 03:20 33.44038 -111.83191 3682 ft 158 kts 271°
2026-04-30 03:20 33.44065 -111.84471 3481 ft 153 kts 270°
2026-04-30 03:21 33.44073 -111.85725 3286 ft 149 kts 270°
2026-04-30 03:21 33.44071 -111.86951 3098 ft 147 kts 269°
2026-04-30 03:21 33.44051 -111.88182 2920 ft 148 kts 268°
2026-04-30 03:21 33.44022 -111.89413 2735 ft 149 kts 271°
2026-04-30 03:22 33.44044 -111.90639 2535 ft 148 kts 271°
2026-04-30 03:22 33.44061 -111.91879 2315 ft 150 kts 270°
2026-04-30 03:22 33.44048 -111.93109 2132 ft 146 kts 270°
2026-04-30 03:22 33.44057 -111.94350 1942 ft 149 kts 273°
2026-04-30 03:23 33.44080 -111.95595 1728 ft 150 kts 270°
2026-04-30 03:23 33.44065 -111.96855 1543 ft 151 kts 270°
2026-04-30 03:23 33.44081 -111.98113 1322 ft 152 kts 270°
2026-04-30 03:23 33.44082 -111.99353 1158 ft 145 kts 269°
2026-04-30 03:24 33.44082 -112.00428 1129 ft 106 kts 270°
2026-04-30 03:24 33.44084 -112.01064 1131 ft 48 kts 270°
2026-04-30 03:24 33.44057 -112.01334 1133 ft 20 kts 228°
2026-04-30 03:24 33.44017 -112.01356 1134 ft 0 kts 185°
2026-04-30 03:26 33.44005 -112.01355 1133 ft 6 kts 171°
2026-04-30 03:26 33.43975 -112.01286 1133 ft 13 kts 90°
2026-04-30 03:26 33.43974 -112.01155 1132 ft 18 kts 89°
2026-04-30 03:27 33.43975 -112.00995 1132 ft 19 kts 90°
2026-04-30 03:27 33.43974 -112.00834 1130 ft 17 kts 90°
2026-04-30 03:27 33.43950 -112.00746 1130 ft 11 kts 154°
2026-04-30 03:27 33.43900 -112.00664 1130 ft 16 kts 91°
2026-04-30 03:28 33.43901 -112.00510 1130 ft 20 kts 90°
2026-04-30 03:28 33.43905 -112.00367 1130 ft 16 kts 90°
2026-04-30 03:28 33.43904 -112.00229 1130 ft 17 kts 89°
2026-04-30 03:28 33.43904 -112.00120 1130 ft 11 kts 98°
2026-04-30 03:29 33.43846 -112.00079 1132 ft 10 kts 175°
2026-04-30 03:29 33.43782 -112.00078 1130 ft 6 kts 179°
2026-04-30 03:29 33.43767 -112.00080 1132 ft 2 kts 197°
2026-04-30 03:29 33.43759 -112.00093 1130 ft 2 kts 243°
2026-04-30 03:30 33.43756 -112.00115 1130 ft 3 kts 263°
2026-04-30 03:30 33.43755 -112.00131 1130 ft 1 kts 268°
2026-04-30 03:30 33.43755 -112.00132 1130 ft 0 kts 268°